CZ-6A DEB

Satellite information

Favourite Embed

Satellite Type and Status

DEBRISIN ORBIT

Key statistics

Satellite CZ-6A DEB at a glance.

Uptime

439

Days in orbit

Revolutions

≈ 14.2

Per day

Orbit

LEO

Low Earth Orbit

Inclination

89.0

Latest

Satellite identification and parameters

Extended collection of information and parameters for CZ-6A DEB.

Object identification

Identified? True

Debris? True

Object name: CZ-6A DEB

International designator: 2024-140LV

Object number (NORAD): 60970

Object ID (CCSDS): 60970

Country: PEOPLES REPUBLIC OF CHINA (PRC)

Current information (Y/N): Y

RCS size: SMALL

Orbital parameters

Period: 101.572 minutes

Inclination: 88.9975 deg

SMA: 7211.247 km

Apoapsis: 873.226 km

Periapsis: 792.998 km

RAAN: 302.1732 deg

Eccentricy: 0.00556274

Argument of periapsis: 236.6759 deg

Mean anomaly: 122.9097 deg

Mean motion: 14.17709393 rev/day

Mean motion (dot): 0.00001294 rev/day2

B* drag term: 0.00061961747 1/REarth

Two-line elements (TLE)

Creation date: Oct. 19, 2025, 2:20 a.m.

Reference frame: TEME

Reference center: EARTH

Epoch: Oct. 18, 2025, 7:23 p.m. UTC

TLE line 0: 0 CZ-6A DEB

TLE line 1: 1 60970U 24140LV 25291.80801798 .00001294 00000-0 61962-3 0 9996

TLE line 2: 2 60970 88.9975 302.1732 0055627 236.6759 122.9097 14.17709393 60854

Live tracking on map

Real-time ground track for satellite CZ-6A DEB.

In-orbit conjunctions

A list of the most updated potential collisions computed for object CZ-6A DEB.

Target Orbit TCA Probability of collision Miss distance Type
FENGYUN 1C DEB SSO 2025-02-02 06:45:09 0.0004328175 508.0 (m) DEBRIS
THOR ABLESTAR DEB LEO 2024-12-16 15:05:52 0.0001155626 467.0 (m) DEBRIS
METEOR 1-17 DEB LEO 2024-11-26 05:42:19 0.0001491223 626.0 (m) DEBRIS
FENGYUN 1C DEB SSO 2024-11-18 05:41:19 0.0003864757 233.0 (m) DEBRIS
CZ-6A DEB LEO 2024-09-18 03:47:17 0.0004393179 431.0 (m) DEBRIS

Associated space launch

18 Low Earth Orbit communication satellites with Ku, Q and V band payloads for the G60 constellation operated by Shanghai Spacecom Satellite Technology (SSST) with funding backed by the Shanghai local government. Initial constellation will consist of 1296 satellites by 2027 with long term plans to expand it to 12000 satellites.

CZ-6A DEB was lifted into orbit during the mission ‘Long March 6A | G60 Polar Group 01’, on board a Long March 6A space rocket.

The launch took place on Aug. 6, 2024, 6:42 a.m. from Launch Complex 9A.

For more information about the launch, click the button.

Launch to space Long March 6A | G60 Polar Group 01
Long March 6A | G60 Polar Group 01

Agency: N/A

Status: Launch Successful

Launch date: Aug. 6, 2024, 6:42 a.m. UTC

Rocket: Long March 6A

Launch pad: Launch Complex 9A

Location: Taiyuan Satellite Launch Center, People's Republic of China

...

Latest news about this satellite

News about space launch
Brightness of first Chinese broadband constellation satellites alarms astronomers

The first satellites of a Chinese broadband constellation are significantly brighter than those of Western systems, posing a new challenge for astronomers.

News about space launch
Chinese rocket stage breaks up into cloud of more than 700 pieces of space debris

HELSINKI — A Chinese Long March 6A rocket’s upper stage has fragmented into a cloud of over 700 pieces of space debris, adding to concerns about long-term orbital safety. China […]

News about space launch
China's Thousand Sails Megaconstellation Kicks Off with Dangerous Debris Field

China's Thousand Sails Megaconstellation Kicks Off with Dangerous Debris Field


Newsletter sign-up

Weekly statistics, charts and insights to help you stay on top of the space industry.